Location: Mentone
(34.5413°N, 85.5351°W)
Time: 06:55:20
(UTC-05:00)

Tiros 1 despin weight - Visible Passes

Search period start: 30 August 2015 00:00
Search period end: 09 September 2015 00:00
Orbit: 597 x 646 km, 48.2° (Epoch: 29 August)

Date Brightness Start Highest point End Pass type
(mag) Time Alt. Az. Time Alt. Az. Time Alt. Az.
03 Sep ? 05:32:52 10° S 05:36:01 19° SE 05:39:15 10° E visible
04 Sep ? 05:49:25 10° SSW 05:53:39 41° SE 05:57:53 10° ENE visible
05 Sep ? 04:28:17 10° SSE 04:30:10 13° SE 04:32:14 10° ESE visible
06 Sep ? 04:45:07 16° S 04:47:46 28° SE 04:51:39 10° ENE visible
07 Sep ? 05:02:39 22° SSW 05:05:27 61° SE 05:09:53 10° ENE visible
08 Sep ? 03:42:56 18° ESE 03:42:56 18° ESE 03:45:11 10° E visible
08 Sep ? 05:20:05 19° WSW 05:23:15 66° NW 05:27:43 10° NE visible
